Regional Weather Roundup
Issued by NWS

Home | Current Version | Previous Version | Graphics & Text | Print | Product List | Glossary On
Versions: 1 2 3 4 5 6 7 8 9 10 11 12 13 14 15 16 17 18 19 20 21 22 23 24 25 26 27 28 29 30 31 32 33 34 35 36 37 38 39 40 41 42 43 44 45 46 47 48 49
000
ASUS45 KBOU 300207
RWRCO

WEATHER ROUNDUP FOR COLORADO
NATIONAL WEATHER SERVICE DENVER/BOULDER CO
700 PM MST THU JAN 29 2015

NOTE: "FAIR" INDICATES FEW OR NO CLOUDS BELOW 12000 FEET WITH NO
SIGNIFICANT WEATHER AND/OR OBSTRUCTIONS TO VISIBILITY.

COZ001>005-013-030-031-300300-
...NORTHWEST COLORADO...

CITY           SKY/WX    TMP DP  RH WIND       PRES   REMARKS
CRAIG          CLOUDY    33  29  85 CALM      30.32R
HAYDEN         CLOUDY    34  27  75 CALM      30.32R
MEEKER         CLOUDY    32  27  81 CALM      30.31R
MOUNT WERNER   NOT AVBL
STEAMBOAT SPGS CLOUDY    35  26  68 CALM      30.32R
WALDEN         MOCLDY    30  23  74 SE8       30.34R WCI  23
$$

COZ006>008-011-300300-
...WEST CENTRAL VALLEYS...

CITY           SKY/WX    TMP DP  RH WIND       PRES   REMARKS
GRAND JUNCTION CLOUDY    44  31  60 SW5       30.28R
MONTROSE       CLOUDY    43  27  53 CALM      30.32R
EAGLE          CLEAR     37  28  70 CALM      30.33
RIFLE          CLOUDY    40  28  62 SE5       30.28S
DELTA          CLOUDY    49  29  45 NW5       30.30S
NUCLA          CLOUDY    45  28  53 E6        30.34S
$$

COZ017>023-064>068-300300-
...SOUTHWEST COLORADO...

CITY           SKY/WX    TMP DP  RH WIND       PRES   REMARKS
DURANGO        CLOUDY    40  31  70 NE3       30.34S
CORTEZ         CLOUDY    48  30  49 SE6       30.30S
PAGOSA SPRINGS CLOUDY    38  29  69 N3        30.38S
TELLURIDE      CLOUDY    36  28  73 CALM      30.37S
WOLF CREEK PAS NOT AVBL
$$

COZ009-010-012-014-032>034-037-058>063-300300-
...CENTRAL COLORADO...

CITY           SKY/WX    TMP DP  RH WIND       PRES   REMARKS
ASPEN          CLOUDY    34  23  64 SW5       30.33R WCI  30
BUENA VISTA    CLOUDY    32  23  69 E5        30.43R WCI  27
COPPER MTN     MOCLDY    28  14  54 S9        30.42R WCI  20
BERTHOUD PASS  FAIR      19  14  79 SW10      30.43R WCI   8
COTTONWOOD PAS CLOUDY    30  25  80 CALM      30.43R
GUNNISON       CLOUDY    23  12  63 CALM      30.39R
KREMMLING      CLOUDY    30  25  80 CALM      30.36R
LEADVILLE      CLOUDY    22  20  92 SW5       30.41R WCI  16
MONARCH PASS   CLOUDY    21  19  93 MISG      30.53R
SALIDA         MOCLDY    32  24  71 W5        30.50R WCI  27
SUNLIGHT       CLOUDY    32  21  64 CALM      30.40S
WILKERSON PASS CLOUDY    21  19  93 SW7       30.44F FOG     WCI  13
$$

COZ069>075-300300-
...SAN LUIS VALLEY/SANGRE DE CRISTO MOUNTAINS...

CITY           SKY/WX    TMP DP  RH WIND       PRES   REMARKS
ALAMOSA        CLOUDY    36  25  64 S9        30.38R
LA VETA PASS   CLOUDY    27  19  74 CALM      30.43S
SAGUACHE       CLOUDY    32  28  86 CALM      30.40S
$$

COZ035-036-038>040-300300-
...NORTHERN COLORADO FRONT RANGE...

CITY           SKY/WX    TMP DP  RH WIND       PRES   REMARKS
DENVER INTL AP MOCLDY    34  27  75 SE8       30.37F WCI  27
DMNS CITY PARK   N/A     42  21  43 S5        30.37R
AURORA         MOCLDY    39  21  48 S18       30.36F
FRONT RANGE AP NOT AVBL
ERIE MUNI ARPT MOCLDY    37  25  61 E5        30.37S
BOULDER MUN AP MOCLDY    39  27  60 CALM      30.37S
CENTENNIAL     PTCLDY    36  22  56 S8        30.37S
BROOMFIELD     PTCLDY    41  27  56 CALM      30.37F
FORT COLLINS   MOCLDY    37  23  56 SE9       30.39S
LONGMONT       MOCLDY    34  25  70 NW3       30.39F
$$

COZ041-046-047-076>085-087-088-300300-
...PIKES PEAK/PALMER DIVIDE AND SOUTHERN FOOTHILLS...

CITY           SKY/WX    TMP DP  RH WIND       PRES   REMARKS
COLO. SPRINGS  CLOUDY    36  22  56 S17       30.44R
A. F. ACADEMY  MOCLDY    35  20  56 S10       30.42R WCI  27
ELLICOTT       MOCLDY   N/A N/A N/A S9        30.43S
FALCON         MOCLDY    32  22  66 S12       30.44R WCI  23
FORT CARSON    MOCLDY    35  23  62 S7        30.43R WCI  29
LIMON          PTCLDY    30  21  69 S5        30.43S WCI  25
MONUMENT HILL  PTCLDY    32  23  69 S14       30.40R WCI  22
TRINIDAD       CLOUDY    36  26  67 SE5       30.44F
$$

COZ042>045-048>051-090-091-300300-
...NORTHEAST COLORADO...

CITY           SKY/WX    TMP DP  RH WIND       PRES   REMARKS
GREELEY ARPT   MOCLDY    34  19  55 E7        30.38S WCI  28
AKRON          PTCLDY    34  18  52 SE8       30.41F WCI  27
BURLINGTON     PTCLDY    32  17  54 SE6       30.45S WCI  26
WRAY           PTCLDY    34  19  54 E5        30.45F WCI  30
STERLING       PTCLDY    34  21  60 CALM      30.41S
HOLYOKE        PTCLDY    32  19  59 SE6       30.45S WCI  26
FORT MORGAN    PTCLDY    33  23  68 E7        30.41S WCI  26
$$

COZ086-089-092>099-300300-
...SOUTHEAST COLORADO...

CITY           SKY/WX    TMP DP  RH WIND       PRES   REMARKS
PUEBLO         MOCLDY    41  23  48 SE7       30.44R
LA JUNTA       MOCLDY    42  25  50 S6        30.45S
LAMAR          PTCLDY    39  22  50 SE9       30.46R
SPRINGFIELD      N/A     39  21  48 SE3       30.47R
$$



USA.gov is the U.S. government's official web portal to all federal, state and local government web resources and services.